DL1SEW-6 Weather Reports


time (UTC)temp
C
wind
direction
speed
KPH
gust
KPH
rain 1hr
cm
rain 24hr
cm
rain mn
cm
humidity
%
barometer
mb
20260507025502 8 155 0.0 3.2 0.05 0.05 0.05 88 1010.0
20260507024002 8 155 1.6 6.4 0.05 0.05 0.05 88 1009.9
20260507022503 8 155 1.6 6.4 0.03 0.03 0.03 87 1009.8
20260507021002 8 155 1.6 6.4 0.00 0.00 0.00 86 1009.7
20260507015501 8 159 3.2 8.0 0.00 0.00 0.00 87 1009.6
20260507014001 7 163 1.6 9.7 0.00 0.00 0.00 87 1009.3
20260507012501 7 161 1.6 8.0 0.00 0.00 0.00 87 1009.3
20260507011001 7 150 3.2 9.7 0.00 0.00 0.00 88 1009.1
20260507005500 7 165 1.6 8.0 0.00 0.00 0.00 88 1009.1
20260507004001 7 150 0.0 4.8 0.00 0.00 0.00 88 1009.0
20260507002502 7 150 0.0 4.8 0.00 0.00 0.00 88 1009.1
20260507001005 7 163 3.2 6.4 0.00 0.00 0.00 88 1009.0
20260506235506 7 165 1.6 6.4 0.00 0.00 0.00 88 1008.9
20260506234005 7 150 0.0 6.4 0.00 0.00 0.00 89 1008.9
20260506232506 8 160 1.6 6.4 0.00 0.00 0.00 89 1009.1
20260506231004 8 161 1.6 6.4 0.00 0.00 0.00 89 1009.0
20260506225504 8 160 0.0 3.2 0.00 0.00 0.00 89 1009.0
20260506224005 8 160 1.6 3.2 0.00 0.00 0.00 89 1008.8
20260506222505 8 171 1.6 8.0 0.00 0.00 0.00 89 1009.0
20260506221007 8 169 3.2 9.7 0.00 0.00 0.00 89 1009.1
20260506215503 8 177 1.6 11.3 0.03 0.61 0.61 89 1010.0
20260506214003 8 164 1.6 11.3 0.03 0.61 0.61 89 1009.9
20260506212503 8 150 3.2 8.0 0.03 0.61 0.61 89 1009.8
20260506211003 8 159 1.6 8.0 0.05 0.61 0.61 89 1009.7
20260506205503 8 175 3.2 11.3 0.05 0.61 0.61 89 1009.6
20260506204003 8 161 3.2 12.9 0.05 0.61 0.61 88 1009.5
20260506202502 8 167 4.8 14.5 0.05 0.58 0.58 88 1009.5
20260506201002 8 157 3.2 9.7 0.05 0.56 0.56 88 1009.3
20260506195502 8 173 1.6 8.0 0.03 0.53 0.53 88 1009.1
20260506194003 8 163 1.6 8.0 0.03 0.53 0.53 88 1008.7
20260506192504 9 150 3.2 14.5 0.00 0.51 0.51 88 1008.7
20260506191002 9 161 1.6 8.0 0.00 0.51 0.51 89 1008.4
20260506185502 9 161 1.6 6.4 0.00 0.51 0.51 89 1008.2
20260506184002 9 178 1.6 3.2 0.03 0.51 0.51 89 1007.9
20260506182501 9 153 0.0 8.0 0.05 0.51 0.51 89 1007.6
20260506181007 10 165 0.0 3.2 0.05 0.51 0.51 90 1007.5
20260506175506 10 165 0.0 3.2 0.05 0.51 0.51 90 1007.2
20260506174006 10 165 1.6 3.2 0.05 0.51 0.51 89 1007.1
20260506172507 10 165 0.0 3.2 0.08 0.48 0.48 89 1006.7
20260506171005 10 177 1.6 4.8 0.13 0.48 0.48 89 1006.7
20260506165506 10 185 3.2 9.7 0.13 0.46 0.46 88 1006.7
20260506164006 10 159 1.6 6.4 0.13 0.43 0.43 88 1006.8
20260506162506 10 208 1.6 4.8 0.10 0.41 0.41 86 1006.8
20260506161005 11 173 4.8 20.9 0.10 0.36 0.36 86 1006.9
20260506155505 11 189 3.2 9.7 0.10 0.33 0.33 87 1006.8
20260506154006 11 207 3.2 14.5 0.10 0.33 0.33 87 1006.7
20260506152504 11 142 3.2 8.0 0.08 0.30 0.30 88 1006.4
20260506151007 11 174 1.6 4.8 0.05 0.25 0.25 87 1006.4
20260506145505 12 174 0.0 8.0 0.10 0.23 0.23 85 1006.2
20260506144003 12 169 0.0 6.4 0.08 0.23 0.23 85 1006.1
20260506142503 12 202 0.0 3.2 0.10 0.23 0.23 84 1005.9
20260506141003 12 234 0.0 3.2 0.10 0.20 0.20 84 1005.8
20260506135504 12 242 0.0 1.6 0.05 0.15 0.15 84 1005.7
20260506134003 12 246 0.0 3.2 0.05 0.15 0.15 82 1005.8
20260506132503 12 250 0.0 3.2 0.05 0.13 0.13 82 1006.0
20260506131002 13 290 0.0 3.2 0.03 0.10 0.10 81 1005.7
20260506125504 13 279 0.0 6.4 0.03 0.10 0.10 80 1005.6
20260506124003 13 293 0.0 1.6 0.00 0.08 0.08 77 1005.6
20260506122502 13 294 0.0 3.2 0.03 0.08 0.08 78 1005.5
20260506121002 13 329 0.0 0.0 0.05 0.08 0.08 77 1005.5
20260506115507 13 332 0.0 3.2 0.05 0.08 0.08 84 1005.4
20260506114006 12 38 0.0 3.2 0.08 0.08 0.08 82 1005.4
20260506112506 13 38 1.6 6.4 0.05 0.05 0.05 79 1005.5
20260506111007 14 360 1.6 6.4 0.03 0.03 0.03 72 1005.8
20260506105506 15 175 0.0 3.2 0.03 0.03 0.03 66 1005.8
20260506104007 15 258 0.0 3.2 0.00 0.00 0.00 61 1005.8
20260506102505 16 269 0.0 3.2 0.00 0.00 0.00 61 1006.0
20260506101005 16 267 0.0 3.2 0.00 0.00 0.00 58 1006.0
20260506095505 16 273 0.0 3.2 0.00 0.00 0.00 59 1006.1
20260506094005 16 290 0.0 3.2 0.00 0.00 0.00 56 1006.2
20260506092506 16 268 0.0 1.6 0.00 0.00 0.00 60 1006.1
20260506091006 16 195 0.0 3.2 0.00 0.00 0.00 62 1006.2
20260506085505 16 204 1.6 4.8 0.00 0.00 0.00 64 1006.0
20260506084004 15 169 0.0 3.2 0.00 0.00 0.00 69 1005.9
20260506082505 15 167 0.0 0.0 0.00 0.00 0.00 68 1005.9
20260506081004 15 167 0.0 6.4 0.00 0.00 0.00 69 1005.9
20260506072503 13 150 0.0 4.8 0.00 0.00 0.00 76 1005.8
20260506071003 12 179 1.6 4.8 0.00 0.00 0.00 77 1005.7
20260506062504 9 178 0.0 0.0 0.00 0.00 0.00 88 1005.3
20260506061003 8 178 0.0 0.0 0.00 0.00 0.00 87 1005.2
20260506051008 8 178 0.0 0.0 0.00 0.00 0.00 85 1005.6
20260506044007 8 178 0.0 0.0 0.00 0.00 0.00 85 1005.6
20260506042507 8 178 0.0 0.0 0.00 0.00 0.00 83 1005.6
20260506041006 8 178 0.0 0.0 0.00 0.00 0.00 83 1005.5
20260506035506 8 178 0.0 0.0 0.00 0.00 0.00 84 1005.6
20260506034006 8 143 0.0 0.0 0.00 0.00 0.00 84 1005.6
20260506032506 8 143 0.0 3.2 0.00 0.00 0.00 86 1005.7
20260506031008 8 144 0.0 3.2 0.00 0.00 0.00 87 1006.0